STARLINK-30139

decayed
NORAD ID: 56829 Int'l Des: 2023-079 Owner: SPXS Country: US Constellation: starlink
LEOCIRCULAR
Group

About STARLINK-30139

Description loading...

Altitude History

Altitude vs Time

uPlot chart will show altitude changes over time

Two-Line Element Set

1 56829U 23079G 23187.95239846 .06549093 92950-5 75468-3 0 9997
2 56829 42.9951 11.5025 0012540 295.4351 197.5804 16.35519852 5652
Epoch: Jul 6, 2023 • Age: 19301 hours

Current Status

Position data unavailable
Launch Date Jun 4, 2023
Age 2.2 years
Decay Date Jul 7, 2023
Type internet

Technical Details

Classification Payload
Mass 730.00 kg
Dry Mass 700.00 kg
Total Mass 730.00 kg
Length 0.30 m
Diameter 4.10 m
Span 29.00 m
Shape Box + pan
Manufacturer SPXS
Bus Type Starlink V2M
Phase Status Unknown Transfer Status
Owner/State SPXS/US

Large Constellations

Loading constellations...